Location: Sagn�
(15.2046°N, 12.7898°W)
Time: 12:49:55
(UTC+00:00)

Cosmos 1763 Rocket - Pass Details

Date: 08 May 2021
Orbit: 733 x 780 km, 74.0° (Epoch: 14 June)

Event Time Altitude Azimuth Distance (km) Brightness Sun altitude
Rises 20:24:33 0° 341° (NNW) 3,168 7.3 -17.5°
Reaches altitude 10° 20:26:54 10° 339° (NNW) 2,250 6.6 -18.0°
Maximum altitude 20:31:56 64° 258° (WSW) 825 3.8 -19.1°
Enters shadow 20:36:25 13° 178° (S) 2,042 5.4 -20.1°
